Location: *
(49.9853°N, 3.5569°E)
Time: 12:27:38
(UTC+00:00)

Cosmos 2297 Rocket - Pass Details

Date: 22 September 2019
Orbit: 841 x 842 km, 71.0° (Epoch: 20 October)

Event Time Altitude Azimuth Distance (km) Brightness Sun altitude
Rises 18:12:50 0° 169° (S) 3,385 5.2 -5.3°
Reaches altitude 10° 18:15:38 10° 157° (SSE) 2,455 4.3 -5.8°
Maximum altitude 18:20:11 26° 103° (ESE) 1,610 3.1 -6.5°
Drops below altitude 10° 18:24:45 10° 49° (NE) 2,469 4.3 -7.2°
Sets 18:27:34 0° 37° (NE) 3,409 5.1 -7.7°
